Showing default

LEMUR 2 LLOYD, 60577

Orbit data source: Space-Track

LEMUR 2 LLOYD, 60577 is an American payload satellite in SSO that was launched on Fri, 16 Aug 2024 UTC via an FALCON 9 launch vehicle from the Air Force Western Test Range (AFWTR). Payload-class satellites include a variety of spacecraft equipped with specific instruments for various scientific and technological missions. These include communications satellites like Starlink; space stations such as the ISS; scientific satellites like the Hubble; Earth observation satellites from companies like Planet Labs, Umbra, and HawkEye 360; GPS; miniature CubeSats for education and research; and military/defense satellites.

Loading next visibility...
Identifier
60577, 2024-149DP
Orbit
SSO
Country
Flag of USUS
Related business
Manufacturer
Spire/Glasgow
Mission
Operational Commercial Com/MetRO
Bus & Motor
CUBESAT 3U, Unknown motor
Mass
7.6 kg wet, 7.6 kg dry
Launch date (UTC)
2024-08-16 (1 year ago)
Launch vehicle
FALCON 9
Launch site
Air Force Western Test Range (AFWTR)
Object type
Payload
Rocket body
Debris
Shape & HBR
Box + 2 Pan, 0.5 m
Radar Cross Section
0.063 m², Small (<0.1 m²)

Expand to show TLE details & history
Last TLE update: 18 hours ago

TLE from 18 hours ago
0 LEMUR 2 LLOYD
1 60577U 24149DP  25286.93857073  .00014219  00000-0  10606-2 0  9992
2 60577  97.6981   3.7390 0002577 250.8031 109.2915 15.02970554 63328
Epoch: 2025-10-13T22:31Z
TLE epoch observation values (Epoch: 2025-10-13T22:31:32.511Z)
Latitude
-0.00003°
Longitude
3.11937°
Altitude
561.392 km
Speed
7.58 km/s
True Right ascension
00h 14m 57s
True Declination
0° 00' 00"
Sunlit
Object was in full shadow at epoch
Visualization orbit readout
Latitude
Unknown
Longitude
Unknown
Altitude
Unknown
Speed
Unknown
Apparent Right ascension
Unknown
Apparent Declination
Unknown
Sunlit
N/A
Visualization observer readout
Local Sidereal Time
10:39:10
Azimuth
Unknown
Elevation
Unknown
Doppler factor
Unknown
Orbital elements
Apogee altitude
556.53 km
Perigee altitude
552.957 km
Semi-major axis
6,932.881 km
Eccentricity
0.00026
Inclination
97.6981°
RAAN
3.739°
Arg. of periapsis
250.8031°
True anomaly
109.31937°
Mean anomaly
109.2915°
Eccentric anomaly
109.30543°
Mean motion
3.75987 °/min
Orbital period
95.75 mins
BSTAR
0.0010606
Loading maneuver chart data...
Computing Atmospheric mass density...
Loading historical data...
Loading historical data...
Loading historical data...
Loading historical data...
Loading historical data...
Loading historical data...
Loading historical data...

Documentation

Showing up to 5 results
|